Retour au catalogue

COSMOS 2251 DEB

ActifLEO
NORAD 33905·DEBRIS·🇷🇺 Russia

Lancé Jun 16, 1993 depuis Plesetsk Cosmodrome

Loading…

Prochains Passages (prochaines 24 heures)

TLE

FraisSource: Space-Track

Époque: Sep 14, 2026, 05:15 UTC

1 33905U 93036DJ  26257.21919469  .00001189  00000-0  40927-3 0  9998
2 33905  73.8866 166.3752 0056289 356.1497 157.6021 14.36243424916411

Suivez COSMOS 2251 DEB en temps réel avec AllMySat

Download on the App Store